THOR ABLESTAR DEB, 124

Orbit data source: Space-Track

THOR ABLESTAR DEB, 124 is space debris in LEO originally from a launch on Thu, 29 Jun 1961 UTC launched from the Air Force Eastern Test Range (AFETR). Debris objects in space refer to the collection of defunct objects orbiting the Earth. Examples of debris include non-operational satellites, rocket bodies, and fragments generated from explosions, collisions, or faulty payload assembly.

Loading next visibility...
Identifier
124, 1961-015J
Orbit
LEO
Country
Flag of USUS
Related business
Manufacturer
Unknown
Mission
Spacecraft
Bus & Motor
Unknown
Mass
Unknown
Launch date (UTC)
1961-06-29 (65 years ago)
Launch vehicle
Unknown
Launch site
Air Force Eastern Test Range (AFETR)
Object type
Payload
Rocket body
Debris
Shape & HBR
Unknown shape, 0.2 m
Radar Cross Section
Medium (>0.1 m² and <1 m²)

Expand to show TLE details & history
Last TLE update: 3 days ago

TLE from 3 days ago
0 THOR ABLESTAR DEB
1   124U 61015J   26171.47897823  .00000210  00000-0  10019-3 0  9992
2   124  66.5437 234.8440 0063143 134.3585 226.2713 14.36026122359402
Epoch: 2026-06-20T11:29Z
TLE epoch observation values (Epoch: 2026-06-20T11:29:43.719Z)
Latitude
-0.00003°
Longitude
153.71881°
Altitude
805.118 km
Speed
7.435 km/s
True Right ascension
15h 39m 22s
True Declination
0° 00' 00"
Sunlit
Object was in full shadow at epoch
Visualization orbit readout
Latitude
Unknown
Longitude
Unknown
Altitude
Unknown
Speed
Unknown
Apparent Right ascension
Unknown
Apparent Declination
Unknown
Sunlit
N/A
Visualization observer readout
Local Sidereal Time
15:36:08
Azimuth
Unknown
Elevation
Unknown
Doppler factor
Unknown
Orbital elements
Apogee altitude
815.183 km
Perigee altitude
724.911 km
Semi-major axis
7,148.184 km
Eccentricity
0.00631
Inclination
66.5437°
RAAN
234.844°
Arg. of periapsis
134.3585°
True anomaly
225.75128°
Mean anomaly
226.2713°
Eccentric anomaly
226.01101°
Mean motion
3.59128 °/min
Orbital period
100.24 mins
BSTAR
0.00010019
Loading maneuver chart data...
Computing Atmospheric mass density...

Documentation

Showing up to 5 results
|